Time[GMT],significant_wave_height[m](0m),dominant_wave_period[s](0m)
2016-12-07 16:30, 0.68,8.0
2016-12-07 17:00, 0.95,10.7
2016-12-07 17:30, 0.88,10.7
2016-12-07 18:00,,
2016-12-07 18:30,,
2016-12-07 19:00, 0.38,3.2
2016-12-07 19:30, 0.37,2.7
2016-12-07 20:00, 0.65,10.7
2016-12-07 20:30, 0.74,10.7
2016-12-07 21:00, 0.80,10.7
2016-12-07 21:30,,
2016-12-07 22:00,,
2016-12-07 22:30, 0.36,3.2
2016-12-07 23:00, 0.59,10.7
2016-12-07 23:30,,
2016-12-08 00:00, 0.33,3.6
2016-12-08 00:30, 0.34,2.5
2016-12-08 01:00, 0.69,10.7
2016-12-08 01:30, 0.62,10.7
2016-12-08 02:00, 0.70,10.7
2016-12-08 02:30,,
2016-12-08 03:00, 0.42,2.7
2016-12-08 03:30, 0.44,2.5
2016-12-08 04:00, 0.48,2.7
2016-12-08 04:30, 0.59,2.9
2016-12-08 05:00, 0.89,8.0
2016-12-08 05:30,,
2016-12-08 06:00, 0.78,8.0
2016-12-08 06:30, 0.50,4.0
2016-12-08 07:00, 0.74,8.0
2016-12-08 07:30, 0.46,4.0
2016-12-08 08:00, 0.42,3.2
2016-12-08 08:30, 0.62,8.0
2016-12-08 09:00, 0.41,4.0
2016-12-08 09:30, 0.38,4.0
2016-12-08 10:00, 0.73,10.7
2016-12-08 10:30,,
2016-12-08 11:00, 0.37,4.0
2016-12-08 11:30, 0.36,4.0
2016-12-08 12:00, 0.64,10.7
2016-12-08 12:30, 0.70,10.7
2016-12-08 13:00, 0.67,10.7
2016-12-08 13:30, 0.66,10.7
2016-12-08 14:00, 0.86,10.7
2016-12-08 14:30, 0.82,10.7
2016-12-08 15:00, 0.78,10.7
2016-12-08 15:30,,
2016-12-08 16:00, 0.55,2.9
2016-12-08 16:30, 0.66,3.6
2016-12-08 17:00, 1.39,10.7
2016-12-08 17:30,,
2016-12-08 18:00,,
2016-12-08 18:30, 1.05,4.6
2016-12-08 19:00, 1.02,4.6
2016-12-08 19:30, 1.12,4.6
2016-12-08 20:00, 1.07,4.6
2016-12-08 20:30, 1.19,5.3
2016-12-08 21:00, 1.10,4.6
2016-12-08 21:30, 1.23,4.6
2016-12-08 22:00, 1.15,4.6
2016-12-08 22:30, 1.23,5.3
2016-12-08 23:00, 1.24,5.3
2016-12-08 23:30, 1.20,5.3
2016-12-09 00:00, 1.22,4.6
2016-12-09 00:30, 1.31,4.6
2016-12-09 01:00, 1.18,5.3
2016-12-09 01:30, 1.09,5.3
2016-12-09 02:00, 1.04,5.3
2016-12-09 02:30, 0.92,5.3
2016-12-09 03:00, 0.94,5.3
2016-12-09 03:30, 1.04,5.3
2016-12-09 04:00, 1.07,5.3
2016-12-09 04:30, 1.15,5.3
2016-12-09 05:00, 1.26,5.3
2016-12-09 05:30, 1.48,5.3
2016-12-09 06:00, 1.42,5.3
2016-12-09 06:30, 1.39,5.3
2016-12-09 07:00, 1.46,5.3
2016-12-09 07:30, 1.62,6.4
2016-12-09 08:00, 1.46,5.3
2016-12-09 08:30, 1.69,6.4
2016-12-09 09:00, 1.65,6.4
2016-12-09 10:00, 1.72,6.4
2016-12-09 10:30, 1.55,5.3
2016-12-09 11:00, 1.69,6.4
2016-12-09 11:30, 1.64,6.4
2016-12-09 12:00, 1.62,6.4
2016-12-09 12:30, 1.69,6.4
2016-12-09 13:00, 1.65,6.4
2016-12-09 13:30, 1.55,6.4
2016-12-09 14:00, 1.58,6.4
2016-12-09 14:30, 1.58,6.4
2016-12-09 15:00, 1.69,6.4
2016-12-09 15:30, 1.45,6.4
2016-12-09 16:00, 1.41,6.4
2016-12-09 16:30, 1.37,5.3
2016-12-09 17:00, 1.37,5.3
2016-12-09 17:30, 1.43,4.6
2016-12-09 18:00, 1.41,6.4
2016-12-09 18:30, 1.37,6.4
2016-12-09 19:00, 1.52,4.0
2016-12-09 19:30, 1.36,6.4
2016-12-09 20:00, 1.42,4.6
2016-12-09 20:30, 1.45,4.6
2016-12-09 21:00, 1.32,4.6
2016-12-09 21:30, 1.63,4.6
2016-12-09 22:00, 1.56,4.6
2016-12-09 22:30, 1.56,4.0
2016-12-09 23:00, 1.57,4.6
2016-12-09 23:30, 1.51,4.0
2016-12-10 00:00, 1.48,5.3
2016-12-10 00:30, 1.51,4.0
2016-12-10 01:00, 1.43,4.6
2016-12-10 01:30, 1.31,5.3
2016-12-10 02:00, 1.28,3.6
2016-12-10 02:30, 1.34,5.3
2016-12-10 03:00, 1.24,5.3
2016-12-10 03:30, 1.24,4.6
2016-12-10 04:00, 1.17,4.6
2016-12-10 04:30, 1.22,4.6
2016-12-10 05:00, 1.26,4.6
2016-12-10 05:30, 1.21,4.6
2016-12-10 06:00, 1.29,4.0
2016-12-10 06:30, 1.25,4.6
2016-12-10 07:00, 1.35,4.6
2016-12-10 07:30, 1.33,4.0
2016-12-10 08:00, 1.21,4.0
2016-12-10 08:30, 1.34,4.6
2016-12-10 09:00, 1.07,4.0
2016-12-10 09:30, 1.15,3.6
2016-12-10 10:00, 1.12,3.6
2016-12-10 10:30, 1.12,4.0
2016-12-10 11:00, 1.11,4.0
2016-12-10 11:30, 1.21,4.0
2016-12-10 12:00, 1.05,3.6
2016-12-10 12:30, 0.97,3.6
2016-12-10 13:00, 0.98,3.6
2016-12-10 13:30, 0.95,3.6
2016-12-10 14:00, 0.99,3.6
2016-12-10 14:30, 0.95,3.2
2016-12-10 15:00, 0.93,4.0
2016-12-10 15:30, 0.87,3.6
2016-12-10 16:00, 0.92,4.0
2016-12-10 16:30, 1.00,3.6
2016-12-10 17:00, 0.94,4.0
2016-12-10 17:30, 0.94,3.6
2016-12-10 18:00, 1.05,3.6
2016-12-10 18:30, 1.05,3.6
2016-12-10 19:00, 1.05,4.0
2016-12-10 19:30, 0.97,3.6
2016-12-10 20:00, 0.98,4.0
2016-12-10 20:30, 1.08,4.0
2016-12-10 21:00, 1.05,4.0
2016-12-10 21:30, 1.17,4.0
2016-12-10 22:00, 1.05,4.0
2016-12-10 22:30, 1.06,4.0
2016-12-10 23:00, 1.00,3.6
2016-12-10 23:30, 0.93,4.0
2016-12-11 00:00, 0.98,3.6
2016-12-11 00:30, 0.98,3.6
2016-12-11 01:00, 0.94,3.6
2016-12-11 01:30, 0.97,4.0
2016-12-11 02:00, 0.95,3.2
2016-12-11 02:30, 0.98,3.6
2016-12-11 03:00, 0.84,3.2
2016-12-11 03:30, 0.83,3.2
2016-12-11 04:00, 0.76,3.2
2016-12-11 04:30, 0.71,3.2
2016-12-11 05:00, 0.64,2.9
2016-12-11 05:30, 0.58,2.7
2016-12-11 06:00, 0.51,2.9
2016-12-11 06:30, 0.47,2.7
2016-12-11 07:00, 0.45,2.5
2016-12-11 07:30, 0.39,2.5
2016-12-11 08:00, 0.43,2.3
2016-12-11 08:30, 0.46,2.5
2016-12-11 09:00, 0.45,2.9
2016-12-11 09:30, 0.43,2.7
2016-12-11 10:00, 0.53,2.9
2016-12-11 10:30, 0.49,2.9
2016-12-11 11:00, 0.43,2.7
2016-12-11 11:30, 0.51,2.9
2016-12-11 12:00, 0.45,2.7
2016-12-11 12:30, 0.44,2.9
2016-12-11 13:00, 0.50,2.9
2016-12-11 13:30, 0.49,2.7
2016-12-11 14:00, 0.50,2.9
2016-12-11 14:30, 0.40,2.9
2016-12-11 15:00, 0.36,2.9
2016-12-11 15:30, 0.33,2.7
2016-12-11 16:00, 0.40,2.9
2016-12-11 16:30, 0.46,4.0
2016-12-11 17:00, 0.51,3.6
2016-12-11 17:30, 0.46,3.6
2016-12-11 18:00, 0.41,2.9
2016-12-11 19:00, 0.46,4.0
2016-12-11 19:30, 0.45,3.6
2016-12-11 20:00, 0.51,3.6
2016-12-11 20:30, 0.44,4.0
2016-12-11 21:00, 0.48,8.0
2016-12-11 21:30, 0.41,2.9
2016-12-11 22:00, 0.40,2.7
2016-12-11 22:30, 0.36,2.7
2016-12-11 23:00, 0.29,2.9
2016-12-11 23:30, 0.30,2.7
2016-12-12 00:00, 0.36,2.7
2016-12-12 00:30, 0.41,2.7
2016-12-12 01:00, 0.42,3.2
2016-12-12 01:30, 0.39,3.6
2016-12-12 02:00, 0.44,3.2
2016-12-12 02:30, 0.36,3.6
2016-12-12 03:00, 0.44,3.6
2016-12-12 03:30, 0.41,3.6
2016-12-12 04:00, 0.42,3.6
2016-12-12 04:30, 0.38,4.0
2016-12-12 05:00, 0.38,3.6
2016-12-12 05:30, 0.40,3.6
2016-12-12 06:00, 0.49,3.6
2016-12-12 06:30, 0.54,4.0
2016-12-12 07:00, 0.66,4.0
2016-12-12 07:30, 0.67,4.0
2016-12-12 08:00, 0.75,4.6
2016-12-12 08:30, 0.76,4.6
2016-12-12 09:00, 0.73,4.6
2016-12-12 09:30, 0.70,4.6
2016-12-12 10:00, 0.74,3.6
2016-12-12 10:30, 0.92,4.0
2016-12-12 11:00, 1.26,4.0
2016-12-12 11:30, 1.20,4.6
2016-12-12 12:00, 1.26,5.3
2016-12-12 12:30, 1.38,5.3
2016-12-12 13:00, 1.28,5.3
2016-12-12 13:30, 1.50,5.3
2016-12-12 14:00, 1.78,5.3
2016-12-12 14:30, 2.33,6.4
2016-12-12 15:00, 2.33,6.4
2016-12-12 15:30, 2.51,6.4
2016-12-12 16:00, 2.35,6.4
2016-12-12 16:30, 2.72,6.4
2016-12-12 17:00, 2.41,6.4
2016-12-12 17:30, 2.43,6.4
2016-12-12 18:00, 2.08,6.4
2016-12-12 18:30, 2.09,8.0
2016-12-12 19:00, 2.09,6.4
2016-12-12 19:30, 1.96,8.0
2016-12-12 20:00, 2.10,8.0
2016-12-12 20:30, 2.02,8.0
2016-12-12 21:00, 2.04,8.0
2016-12-12 21:30, 2.15,8.0
2016-12-12 22:00, 2.09,8.0
2016-12-12 22:30, 1.64,8.0
2016-12-12 23:00, 1.80,8.0
2016-12-12 23:30, 1.58,8.0
2016-12-13 00:00, 1.60,8.0
2016-12-13 00:30, 1.43,8.0
2016-12-13 01:00, 1.45,8.0
2016-12-13 02:00, 1.27,8.0
2016-12-13 02:30, 1.21,8.0
2016-12-13 03:00, 1.23,8.0
2016-12-13 03:30, 1.32,8.0
2016-12-13 04:00,,
2016-12-13 04:30, 0.50,2.7
2016-12-13 05:00, 1.66,8.0
2016-12-13 05:30,,
2016-12-13 06:00, 2.21,10.7
2016-12-13 06:30, 2.20,10.7
2016-12-13 07:00,,
2016-12-13 07:30, 2.43,10.7
2016-12-13 08:00, 2.29,10.7
2016-12-13 08:30,,
2016-12-13 09:00, 2.10,10.7
2016-12-13 09:30, 1.58,6.4
2016-12-13 10:00, 2.14,10.7
2016-12-13 10:30, 2.10,10.7
2016-12-13 11:00, 2.09,10.7
2016-12-13 11:30, 2.13,10.7
2016-12-13 12:00, 1.86,10.7
2016-12-13 12:30,,
2016-12-13 13:00, 1.42,6.4
2016-12-13 13:30, 1.68,10.7
2016-12-13 14:00, 1.14,6.4
2016-12-13 14:30, 1.11,6.4
2016-12-13 15:00, 1.15,6.4
2016-12-13 15:30, 1.18,6.4
2016-12-13 16:00, 1.02,6.4
2016-12-13 17:00, 1.33,10.7
2016-12-13 17:30, 1.49,10.7
2016-12-13 18:00, 1.26,10.7
2016-12-13 18:30, 1.28,10.7
2016-12-13 19:00, 1.23,10.7
2016-12-13 19:30, 1.38,10.7
2016-12-13 20:00, 0.96,10.7
2016-12-13 20:30, 1.00,10.7
2016-12-13 21:00, 1.04,10.7
2016-12-13 21:30, 1.08,10.7
2016-12-13 22:00, 0.99,10.7
2016-12-13 22:30, 0.95,10.7
2016-12-13 23:00, 0.93,10.7
2016-12-13 23:30, 1.15,10.7
2016-12-14 00:00, 0.94,10.7
2016-12-14 00:30, 0.49,4.0
2016-12-14 01:00, 1.28,10.7
2016-12-14 01:30, 1.27,10.7
2016-12-14 02:00,,
2016-12-14 02:30, 0.87,4.0
2016-12-14 03:00, 0.93,4.6
2016-12-14 03:30, 0.99,4.6
2016-12-14 04:00, 1.07,4.0
2016-12-14 04:30, 1.31,4.6
2016-12-14 05:00, 1.84,5.3
2016-12-14 05:30, 1.44,5.3
2016-12-14 06:00, 1.42,5.3
2016-12-14 06:30, 1.55,5.3
2016-12-14 07:00, 1.65,5.3
2016-12-14 07:30, 1.67,5.3
2016-12-14 08:00, 1.77,5.3
2016-12-14 08:30, 1.77,5.3
2016-12-14 09:00, 1.64,6.4
2016-12-14 09:30, 1.81,6.4
2016-12-14 10:00, 2.18,6.4
2016-12-14 10:30, 1.84,6.4
2016-12-14 11:00, 1.84,6.4
2016-12-14 11:30, 1.52,5.3
2016-12-14 12:00, 1.52,6.4
2016-12-14 12:30, 1.35,6.4
2016-12-14 13:00, 1.27,6.4
2016-12-14 13:30, 1.39,6.4
2016-12-14 14:00, 1.23,6.4
2016-12-14 14:30, 1.24,5.3
2016-12-14 15:00, 1.62,10.7
2016-12-14 15:30, 1.29,5.3
2016-12-14 16:00, 1.23,5.3
2016-12-14 16:30, 1.19,5.3
2016-12-14 17:00, 1.06,5.3
2016-12-14 17:30, 1.14,5.3
2016-12-14 18:00, 1.54,10.7
2016-12-14 18:30, 1.07,5.3
2016-12-14 19:00, 1.00,5.3
2016-12-14 19:30, 0.95,5.3
2016-12-14 20:00, 1.35,10.7
2016-12-14 20:30, 1.40,10.7
2016-12-14 21:00, 1.37,10.7
2016-12-14 21:30,,
2016-12-14 22:00, 1.05,8.0
2016-12-14 22:30,,
2016-12-14 23:00, 0.62,4.6
2016-12-14 23:30, 0.64,4.6
2016-12-15 00:00, 0.56,4.6
2016-12-15 00:30, 1.10,10.7
2016-12-15 01:00, 0.52,4.0
2016-12-15 01:30, 0.66,4.6
2016-12-15 02:00, 0.97,3.6
2016-12-15 02:30, 1.23,4.6
2016-12-15 03:00, 1.48,5.3
2016-12-15 03:30, 1.54,5.3
2016-12-15 04:00, 1.68,5.3
2016-12-15 04:30, 1.68,5.3
2016-12-15 05:00, 1.91,6.4
2016-12-15 05:30, 1.57,6.4
2016-12-15 06:00, 1.70,6.4
2016-12-15 06:30, 1.69,6.4
2016-12-15 07:00, 1.78,6.4
2016-12-15 07:30, 1.95,6.4
2016-12-15 08:00, 1.95,6.4
2016-12-15 08:30, 1.96,6.4
2016-12-15 09:00, 1.97,6.4
2016-12-15 09:30, 2.00,6.4
2016-12-15 10:00, 2.08,6.4
2016-12-15 10:30, 2.35,6.4
2016-12-15 11:00, 2.12,6.4
2016-12-15 11:30, 2.46,6.4
2016-12-15 12:00, 2.00,6.4
2016-12-15 12:30, 2.33,6.4
2016-12-15 13:00, 2.12,6.4
2016-12-15 13:30, 2.52,8.0
2016-12-15 14:00, 2.50,8.0
2016-12-15 14:30, 2.26,6.4
2016-12-15 15:00, 2.17,8.0
2016-12-15 15:30, 2.16,8.0
2016-12-15 16:00, 2.07,8.0
2016-12-15 16:30, 2.06,8.0
2016-12-15 17:00, 1.85,6.4
2016-12-15 17:30, 2.04,6.4
2016-12-15 18:00, 2.13,6.4
2016-12-15 18:30, 2.11,8.0
2016-12-15 19:00, 2.18,5.3
2016-12-15 19:30, 2.35,5.3
2016-12-15 20:00, 2.18,6.4
2016-12-15 20:30, 2.34,6.4
2016-12-15 21:00, 2.40,5.3
2016-12-15 21:30, 2.55,6.4
2016-12-15 22:00, 2.15,6.4
2016-12-15 22:30, 2.08,6.4
2016-12-15 23:00, 1.73,6.4
2016-12-15 23:30, 1.79,5.3
2016-12-16 00:00, 1.59,5.3
2016-12-16 00:30, 1.68,5.3
2016-12-16 01:00, 1.77,5.3
2016-12-16 01:30, 1.97,5.3
2016-12-16 02:00, 1.78,6.4
2016-12-16 02:30, 1.86,5.3
2016-12-16 03:00, 2.11,4.6
2016-12-16 03:30, 2.44,5.3
2016-12-16 04:00, 2.55,5.3
2016-12-16 04:30, 2.50,5.3
2016-12-16 05:00, 2.44,5.3
2016-12-16 05:30, 2.50,5.3
2016-12-16 06:00, 2.32,5.3
2016-12-16 06:30, 2.83,5.3
2016-12-16 07:00, 2.69,5.3
2016-12-16 07:30, 2.53,5.3
2016-12-16 08:00, 2.66,5.3
2016-12-16 08:30, 2.61,6.4
2016-12-16 09:00, 2.31,6.4
2016-12-16 09:30, 2.35,5.3
2016-12-16 10:00, 2.84,6.4
2016-12-16 10:30, 2.34,5.3
2016-12-16 11:00, 2.17,5.3
2016-12-16 11:30, 2.10,5.3
2016-12-16 12:00, 1.87,5.3
2016-12-16 12:30, 1.76,5.3
2016-12-16 13:00, 1.78,4.6
2016-12-16 13:30, 1.45,4.6
2016-12-16 14:00, 1.97,4.6
2016-12-16 14:30, 1.74,5.3
2016-12-16 15:00, 1.47,4.6
2016-12-16 15:30, 1.39,4.0
2016-12-16 16:00, 1.30,4.6
2016-12-16 16:30, 1.16,4.0
2016-12-16 17:00, 1.22,4.0
2016-12-16 17:30, 1.16,4.6
2016-12-16 18:00, 0.95,4.6
2016-12-16 18:30, 1.12,4.0
2016-12-16 19:00, 0.94,4.6
2016-12-16 19:30, 0.89,4.0
2016-12-16 20:00, 0.89,3.6
2016-12-16 20:30, 0.88,4.0
2016-12-16 21:00, 0.75,4.0
2016-12-16 21:30, 0.90,10.7
2016-12-16 22:00,,
2016-12-16 22:30, 0.57,4.0
2016-12-16 23:00, 0.61,4.0
2016-12-16 23:30, 0.71,3.2
2016-12-17 00:00, 0.75,4.0
2016-12-17 00:30, 0.85,4.6
2016-12-17 01:00, 0.76,4.6
2016-12-17 02:00, 0.79,4.0
2016-12-17 02:30, 0.96,4.6
2016-12-17 03:00, 1.03,4.6
2016-12-17 03:30, 1.13,5.3
2016-12-17 04:00, 1.18,4.6
2016-12-17 04:30, 1.16,5.3
2016-12-17 05:00, 1.27,4.6
2016-12-17 05:30, 1.51,5.3
2016-12-17 06:00, 1.28,4.6
2016-12-17 06:30, 1.48,5.3
2016-12-17 07:00, 1.43,5.3
2016-12-17 07:30, 1.49,4.6
2016-12-17 08:00, 1.58,5.3
2016-12-17 08:30, 1.43,5.3
2016-12-17 09:00, 1.52,5.3
2016-12-17 09:30, 1.25,5.3
2016-12-17 10:00, 1.27,5.3
2016-12-17 10:30, 1.12,5.3
2016-12-17 11:00, 1.15,6.4
2016-12-17 11:30, 1.18,5.3
2016-12-17 12:00, 1.14,5.3
2016-12-17 12:30, 1.06,5.3
2016-12-17 13:00, 1.07,5.3
2016-12-17 13:30, 1.09,5.3
2016-12-17 14:00, 1.00,5.3
2016-12-17 14:30, 1.04,6.4
2016-12-17 15:00, 1.13,6.4
2016-12-17 15:30, 1.24,5.3
2016-12-17 16:00, 1.24,5.3
2016-12-17 16:30, 1.34,5.3
2016-12-17 17:00, 1.16,4.6
2016-12-17 18:00, 1.31,4.6
2016-12-17 18:30, 1.39,4.6
2016-12-17 19:00, 1.50,5.3
2016-12-17 19:30, 1.43,5.3
2016-12-17 20:00, 1.84,5.3
2016-12-17 20:30, 2.04,6.4
2016-12-17 21:00, 1.97,6.4
2016-12-17 21:30, 2.38,8.0
2016-12-17 22:00, 2.13,8.0
2016-12-17 22:30, 1.96,8.0
2016-12-17 23:00, 2.21,8.0
2016-12-17 23:30, 2.47,8.0
2016-12-18 00:00, 2.37,8.0
2016-12-18 00:30, 2.14,8.0
2016-12-18 01:00, 2.16,8.0
2016-12-18 01:30, 2.79,8.0
2016-12-18 02:00, 2.19,8.0
2016-12-18 02:30, 2.05,8.0
2016-12-18 03:00, 1.95,8.0
2016-12-18 03:30, 1.75,8.0
2016-12-18 04:00, 1.65,8.0
2016-12-18 04:30, 1.62,8.0
2016-12-18 05:00, 1.78,8.0
2016-12-18 05:30, 1.89,8.0
2016-12-18 06:00, 1.81,8.0
2016-12-18 06:30, 1.68,8.0
2016-12-18 07:00, 1.81,8.0
2016-12-18 07:30, 1.90,8.0
2016-12-18 08:00, 1.97,8.0
2016-12-18 08:30, 2.33,10.7
2016-12-18 09:00, 2.48,10.7
2016-12-18 09:30, 3.07,10.7
2016-12-18 10:00, 2.98,10.7
2016-12-18 10:30, 3.02,10.7
2016-12-18 11:00, 2.98,10.7
2016-12-18 11:30, 3.72,10.7
2016-12-18 12:00, 3.03,10.7
2016-12-18 12:30, 3.19,10.7
2016-12-18 13:00, 3.19,10.7
2016-12-18 13:30, 3.30,10.7
2016-12-18 14:00, 3.06,10.7
2016-12-18 14:30,,
2016-12-18 15:00, 3.07,10.7
2016-12-18 15:30, 2.94,8.0
2016-12-18 16:00, 2.41,6.4
2016-12-18 16:30, 2.72,8.0
2016-12-18 17:00, 2.72,6.4
2016-12-18 17:30, 2.79,8.0
2016-12-18 18:00, 2.96,6.4
2016-12-18 18:30, 2.85,8.0
2016-12-18 19:00, 3.00,8.0
2016-12-18 19:30, 2.89,8.0
2016-12-18 20:00, 3.16,10.7
2016-12-18 20:30, 3.32,8.0
2016-12-18 21:00, 3.88,8.0
2016-12-18 21:30,,
2016-12-18 22:00, 2.90,8.0
2016-12-18 22:30, 3.29,10.7
2016-12-18 23:00, 2.92,8.0
2016-12-18 23:30, 2.86,10.7
2016-12-19 00:00, 2.69,10.7
2016-12-19 00:30, 2.77,10.7
2016-12-19 01:00, 2.84,10.7
2016-12-19 01:30, 2.67,10.7
2016-12-19 02:00, 2.61,10.7
2016-12-19 02:30, 2.51,10.7
2016-12-19 03:00, 2.51,10.7
2016-12-19 03:30, 2.71,10.7
2016-12-19 04:00, 2.37,8.0
2016-12-19 04:30,,
2016-12-19 05:00, 1.85,10.7
2016-12-19 05:30, 2.01,10.7
2016-12-19 06:00, 1.61,10.7
2016-12-19 06:30,,
2016-12-19 07:00, 1.96,10.7
2016-12-19 07:30,,
2016-12-19 08:00, 1.22,4.0
2016-12-19 08:30, 1.36,4.6
2016-12-19 09:00, 1.49,10.7
2016-12-19 09:30, 1.39,10.7
2016-12-19 10:00,,
2016-12-19 10:30, 0.81,3.2
2016-12-19 11:00, 1.57,10.7
2016-12-19 11:30,,
2016-12-19 12:00, 1.43,10.7
2016-12-19 12:30, 1.47,10.7
2016-12-19 13:00, 1.44,10.7
2016-12-19 13:30,,
2016-12-19 14:00, 1.51,10.7
2016-12-19 14:30,,
2016-12-19 15:00, 1.73,10.7
2016-12-19 15:30,,
2016-12-19 16:00,,
2016-12-19 16:30,,
2016-12-19 17:00,,
2016-12-19 17:30,,
2016-12-19 18:00,,
2016-12-19 18:30,,
2016-12-19 19:00,,
2016-12-19 19:30,,
2016-12-19 20:00, 0.88,10.7
2016-12-19 20:30, 0.91,10.7
2016-12-19 21:00, 0.89,10.7
2016-12-19 21:30, 0.92,10.7
2016-12-19 22:00,,
2016-12-19 22:30,,
2016-12-19 23:00, 0.44,2.5
2016-12-19 23:30, 1.00,10.7
2016-12-20 00:00, 0.75,10.7
2016-12-20 00:30, 0.87,10.7
2016-12-20 01:00, 0.80,10.7
2016-12-20 01:30, 0.89,10.7
2016-12-20 02:00, 0.34,4.6
2016-12-20 02:30, 1.00,10.7
2016-12-20 03:00, 0.86,8.0
2016-12-20 03:30, 0.86,8.0
2016-12-20 04:00, 0.77,8.0
2016-12-20 04:30, 0.93,8.0
2016-12-20 05:00, 0.77,10.7
2016-12-20 05:30, 0.94,10.7
2016-12-20 06:00, 0.74,8.0
2016-12-20 06:30, 0.71,10.7
2016-12-20 07:00, 0.64,10.7
2016-12-20 07:30, 0.67,10.7
2016-12-20 08:00, 0.66,10.7
2016-12-20 08:30, 0.53,10.7
2016-12-20 09:00, 0.54,10.7
2016-12-20 09:30, 0.60,10.7
2016-12-20 10:00, 0.66,10.7
2016-12-20 10:30, 0.48,10.7
2016-12-20 11:00, 0.49,10.7
2016-12-20 11:30, 0.55,10.7
2016-12-20 12:00, 0.53,10.7
2016-12-20 12:30, 0.51,10.7
2016-12-20 13:00, 0.50,8.0
2016-12-20 13:30, 0.58,8.0
2016-12-20 14:00, 0.55,8.0
2016-12-20 14:30, 0.53,8.0
2016-12-20 15:00, 0.60,8.0
2016-12-20 15:30, 0.55,8.0
2016-12-20 16:00, 0.71,8.0
2016-12-20 16:30, 0.70,8.0
2016-12-20 17:00, 0.55,8.0
2016-12-20 17:30, 0.67,8.0
2016-12-20 18:00, 0.65,8.0
2016-12-20 18:30, 0.59,8.0
2016-12-20 19:00, 0.58,8.0
2016-12-20 19:30, 0.74,8.0
2016-12-20 20:00, 0.73,8.0
2016-12-20 20:30, 0.64,2.9
2016-12-20 21:00, 0.75,3.2
2016-12-20 21:30, 0.88,3.6
2016-12-20 22:00, 1.05,3.6
2016-12-20 22:30, 1.25,4.0
2016-12-20 23:00, 1.36,4.6
2016-12-20 23:30, 1.54,4.6
2016-12-21 00:00, 1.74,5.3
2016-12-21 00:30, 1.75,5.3
2016-12-21 01:00, 2.17,5.3
2016-12-21 02:00, 2.17,6.4
2016-12-21 02:30, 2.56,6.4
2016-12-21 03:00, 2.47,6.4
2016-12-21 03:30, 2.66,6.4
2016-12-21 04:00, 3.01,6.4
2016-12-21 04:30, 2.83,8.0
2016-12-21 05:00, 3.24,6.4
2016-12-21 05:30, 3.94,8.0
2016-12-21 06:00, 3.14,8.0
2016-12-21 06:30, 2.85,8.0
2016-12-21 07:00, 3.06,8.0
2016-12-21 07:30, 2.83,8.0
2016-12-21 08:00, 2.85,8.0
2016-12-21 08:30, 2.57,8.0
2016-12-21 09:00, 2.10,6.4
2016-12-21 09:30, 2.34,6.4
2016-12-21 10:00, 2.02,6.4
2016-12-21 10:30, 2.00,6.4
2016-12-21 11:00, 1.80,6.4
2016-12-21 11:30, 2.31,6.4
2016-12-21 12:00, 2.05,6.4
2016-12-21 12:30, 1.81,6.4
2016-12-21 13:00, 1.64,6.4
2016-12-21 13:30, 1.86,6.4
2016-12-21 14:00, 1.84,6.4
2016-12-21 14:30, 1.90,6.4
2016-12-21 15:00, 1.67,6.4
2016-12-21 15:30, 1.55,6.4
2016-12-21 16:00, 1.52,6.4
2016-12-21 16:30, 1.30,6.4
2016-12-21 17:00, 1.25,5.3
2016-12-21 17:30, 1.30,5.3
2016-12-21 18:00, 1.10,5.3
2016-12-21 18:30, 1.16,5.3
2016-12-21 19:00, 1.21,5.3
2016-12-21 19:30, 1.11,5.3
2016-12-21 20:00, 1.04,5.3
2016-12-21 20:30, 0.97,5.3
2016-12-21 21:00, 1.06,5.3
2016-12-21 21:30, 1.01,5.3
2016-12-21 22:00, 1.13,5.3
2016-12-21 22:30, 1.13,4.6
2016-12-21 23:00, 1.10,3.6
2016-12-21 23:30, 1.24,5.3
2016-12-22 00:00, 1.17,5.3
2016-12-22 00:30, 1.28,5.3
2016-12-22 01:00, 1.28,5.3
2016-12-22 01:30, 1.16,5.3
2016-12-22 02:00, 1.18,5.3
2016-12-22 02:30, 1.10,5.3
2016-12-22 03:00, 1.12,4.6
2016-12-22 03:30, 1.20,5.3
2016-12-22 04:00, 1.03,5.3
2016-12-22 04:30, 0.93,4.6
2016-12-22 05:00, 1.07,5.3
2016-12-22 05:30, 0.97,5.3
2016-12-22 06:00, 0.93,4.6
2016-12-22 06:30, 0.82,5.3
2016-12-22 07:00, 0.89,5.3
2016-12-22 07:30, 0.80,5.3
2016-12-22 08:00, 0.70,5.3
2016-12-22 08:30, 0.85,5.3
2016-12-22 09:00, 1.09,10.7
2016-12-22 09:30, 0.72,5.3
2016-12-22 10:00, 0.68,5.3
2016-12-22 10:30, 0.89,5.3
2016-12-22 11:00, 0.69,5.3
2016-12-22 11:30, 0.68,5.3
2016-12-22 12:00, 1.03,10.7
2016-12-22 12:30, 1.08,10.7
2016-12-22 13:00, 0.79,4.6
2016-12-22 13:30, 0.98,4.0
2016-12-22 14:00, 1.04,4.6
2016-12-22 14:30, 1.05,4.6
2016-12-22 15:00, 1.02,4.6
2016-12-22 15:30, 1.07,4.6
2016-12-22 16:00, 0.96,4.6
2016-12-22 16:30, 1.01,4.6
2016-12-22 17:00, 0.98,4.6
2016-12-22 17:30, 0.99,4.6
2016-12-22 18:00, 1.03,4.6
2016-12-22 18:30, 0.90,4.6
2016-12-22 19:00, 0.85,4.6
2016-12-22 19:30, 0.89,4.6
2016-12-22 20:00, 0.85,4.6
2016-12-22 20:30, 0.84,4.6
2016-12-22 21:00, 0.92,4.0
2016-12-22 21:30, 1.07,4.6
2016-12-22 22:00, 1.04,4.6
2016-12-22 22:30, 0.98,4.6
2016-12-22 23:00, 0.93,4.6
2016-12-22 23:30, 0.89,4.6
2016-12-23 00:00, 0.93,4.6
2016-12-23 01:00, 0.89,4.6
2016-12-23 01:30, 0.89,5.3
2016-12-23 02:00, 0.90,5.3
2016-12-23 02:30, 0.70,3.2
2016-12-23 03:00, 0.97,5.3
2016-12-23 03:30, 1.43,10.7
2016-12-23 04:00,,
2016-12-23 04:30,,
2016-12-23 05:00,,
2016-12-23 05:30, 0.82,3.6
2016-12-23 06:00, 0.77,3.2
2016-12-23 06:30, 0.79,3.2
2016-12-23 07:00, 0.78,3.2
2016-12-23 08:00, 0.75,2.9
2016-12-23 08:30, 0.73,3.2
2016-12-23 09:00, 0.80,3.6
2016-12-23 09:30, 0.92,3.6
2016-12-23 10:00, 0.88,3.6
2016-12-23 10:30, 0.80,3.2
2016-12-23 11:00, 0.69,3.2
2016-12-23 11:30, 0.65,3.2
2016-12-23 12:00, 0.52,2.9
2016-12-23 12:30, 0.51,2.9
2016-12-23 13:00, 0.56,2.9
2016-12-23 13:30, 0.65,2.9
2016-12-23 14:00, 0.69,3.6
2016-12-23 14:30, 0.69,4.0
2016-12-23 15:00, 0.63,3.6
2016-12-23 16:00, 0.62,3.2
2016-12-23 16:30, 0.65,3.6
2016-12-23 17:00, 0.55,2.9
2016-12-23 17:30, 0.59,3.2
2016-12-23 18:00, 0.62,4.0
2016-12-23 18:30, 0.76,3.6
2016-12-23 19:00, 0.79,3.6
2016-12-23 19:30, 0.86,4.0
2016-12-23 20:00, 0.96,4.0
2016-12-23 20:30, 0.88,4.6
2016-12-23 21:00, 0.96,4.6
2016-12-23 21:30, 1.00,4.6
2016-12-23 22:00, 1.05,5.3
2016-12-23 23:00, 1.14,5.3
2016-12-23 23:30, 1.21,5.3
2016-12-24 00:00, 1.26,5.3
2016-12-24 00:30, 1.30,5.3
2016-12-24 01:00, 1.37,5.3
2016-12-24 01:30, 1.26,5.3
2016-12-24 02:00, 1.45,5.3
2016-12-24 02:30, 1.49,5.3
2016-12-24 03:00, 1.36,5.3
2016-12-24 03:30, 1.58,5.3
2016-12-24 04:00, 1.51,5.3
2016-12-24 05:00, 1.53,6.4
2016-12-24 05:30, 1.50,5.3
2016-12-24 06:00, 1.56,5.3
2016-12-24 07:00, 1.71,6.4
2016-12-24 07:30, 1.78,6.4
2016-12-24 08:00, 1.84,6.4
2016-12-24 08:30, 1.78,6.4
2016-12-24 09:00, 1.68,5.3
2016-12-24 09:30, 1.84,6.4
2016-12-24 10:00, 1.64,6.4
2016-12-24 11:00, 1.43,6.4
2016-12-24 11:30, 1.52,6.4
2016-12-24 12:00, 1.47,6.4
2016-12-24 12:30, 1.48,5.3
2016-12-24 13:00, 1.62,5.3
2016-12-24 13:30, 1.62,5.3
2016-12-24 14:00, 1.81,5.3
2016-12-24 14:30, 1.98,6.4
2016-12-24 15:00, 1.92,6.4
2016-12-24 15:30, 2.39,6.4
2016-12-24 16:00, 2.79,6.4
2016-12-24 16:30, 2.50,8.0
2016-12-24 17:00, 2.60,6.4
2016-12-24 17:30, 3.14,6.4
2016-12-24 18:00, 2.71,8.0
2016-12-24 18:30, 3.00,6.4
2016-12-24 19:00, 2.81,8.0
2016-12-24 19:30, 2.70,8.0
2016-12-24 20:00, 3.01,8.0
2016-12-24 20:30, 2.77,8.0
2016-12-24 21:00, 2.36,8.0
2016-12-24 21:30, 2.57,8.0
2016-12-24 22:00, 2.57,8.0
2016-12-24 22:30, 2.38,8.0
2016-12-24 23:00, 2.23,6.4
2016-12-24 23:30, 2.33,8.0
2016-12-25 00:00, 2.19,6.4
2016-12-25 00:30, 1.82,6.4
2016-12-25 01:00, 1.70,6.4
2016-12-25 01:30, 1.82,6.4
2016-12-25 02:00, 1.52,6.4
2016-12-25 02:30, 1.36,5.3
2016-12-25 03:00, 1.59,6.4
2016-12-25 03:30, 1.25,6.4
2016-12-25 04:00, 1.25,6.4
2016-12-25 04:30, 1.26,6.4
2016-12-25 05:00, 1.29,6.4
2016-12-25 05:30, 1.21,6.4
2016-12-25 06:00, 1.17,5.3
2016-12-25 06:30, 1.26,6.4
2016-12-25 07:00, 1.25,6.4
2016-12-25 07:30, 1.26,6.4
2016-12-25 08:00, 1.32,6.4
2016-12-25 08:30, 1.20,5.3
2016-12-25 09:00, 1.28,6.4
2016-12-25 09:30, 1.24,6.4
2016-12-25 10:00, 1.27,5.3
2016-12-25 10:30, 1.25,5.3
2016-12-25 11:00, 1.30,6.4
2016-12-25 11:30, 1.24,6.4
2016-12-25 12:00, 1.30,5.3
2016-12-25 12:30, 1.30,5.3
2016-12-25 13:00, 1.27,3.2
2016-12-25 13:30, 1.32,5.3
2016-12-25 14:00, 1.09,4.6
2016-12-25 14:30, 1.64,4.0
2016-12-25 15:00, 1.50,4.6
2016-12-25 15:30, 1.47,4.6
2016-12-25 16:00, 1.45,4.0
2016-12-25 16:30, 1.36,4.0
2016-12-25 17:00, 1.22,4.0
2016-12-25 17:30, 1.30,4.0
2016-12-25 18:00, 1.21,4.0
2016-12-25 18:30, 1.14,4.0
2016-12-25 19:00, 1.24,4.0
2016-12-25 19:30, 1.12,4.0
2016-12-25 20:00, 1.14,4.0
2016-12-25 20:30, 0.97,4.0
2016-12-25 21:00, 1.01,4.0
2016-12-25 21:30, 1.07,4.0
2016-12-25 22:00, 1.28,4.0